Regional Weather Roundup
Issued by NWS Wakefield, VA

Home | Current Version | Previous Version | Graphics & Text | Print | Product List | Glossary On
Versions: 1 2 3 4 5 6 7 8 9 10 11 12 13 14 15 16 17 18 19 20 21 22 23 24 25 26 27 28 29 30 31 32 33 34 35 36 37 38 39 40 41 42 43 44 45 46 47 48 49 50
000
ASUS41 KAKQ 280610
RWRAKQ

REGIONAL WEATHER ROUNDUP
NATIONAL WEATHER SERVICE WAKEFIELD VA
200 AM EDT MON JUL 28 2014

Note: "fair" indicates few or no clouds below 12,000 feet with no
significant weather and/or obstructions to visibility. * = Denotes
station may not report precipitation (e.g., rain,snow,etc.),
thunder or fog.

VAZ042-051-052>054-056-280700-
NORTHERN VIRGINIA

CITY           SKY/WX    TMP DP  RH WIND       PRES   REMARKS
WASH NATIONAL  CLOUDY    79  72  79 NW5       29.61S
DULLES         CLOUDY    71  65  81 S3        29.62S
FORT BELVOIR   MOCLDY    78  72  80 VRB2      29.61S
QUANTICO       MOCLDY    78  71  79 W7        29.62F
FREDERICKSBRG* MOCLDY    78  73  83 SW7       29.61F
STAFFORD*      MOCLDY    77  77 100 SW5       29.66S
WARRENTON      MOCLDY    76  75  97 SW5       29.62F
CULPEPER*      CLOUDY   N/A N/A N/A CALM      29.63F
MANASSAS*      MOCLDY    72  70  94 N3        29.61F
LEESBURG*      MOCLDY    70  70 100 CALM      29.63F
WINCHESTER     CLOUDY    68  64  88 SW5       29.64F
$$

VAZ048-049-060>072-079>083-280700-
CENTRAL AND SOUTH CENTRAL VIRGINIA...AND NORTH CENTRAL NORTH CAROLINA

CITY           SKY/WX    TMP DP  RH WIND       PRES   REMARKS
RICHMOND       CLOUDY    79  72  79 SW10      29.65F
CHESTERFIELD*  PTCLDY    77  64  65 SW7       29.67F
HANOVER        PTCLDY    79  71  76 S10       29.66F
TAPPAHANNOCK*  PTCLDY    76  70  81 S8        29.64F
CHARLOTTSVILLE CLOUDY    75  72  90 SW6       29.64F
ORANGE*        CLOUDY    73  72  94 S6        29.65S
LOUISA*        MOCLDY    75  72  88 SW6       29.63F
FARMVILLE*     MOCLDY    77  75  94 SW9       29.66F
SOUTH HILL*    MOCLDY    75  75 100 S6        29.75F
ROANOKE RAPIDS NOT AVBL
RALEIGH        CLOUDY    78  70  76 SW8       29.75F
$$

VAZ088>098-280700-
SOUTHEAST VIRGINIA

CITY           SKY/WX    TMP DP  RH WIND       PRES   REMARKS
NORFOLK        CLEAR     79  71  76 SW16      29.68F
VIRGINIA BEACH PTCLDY    79  73  82 SW14G22   29.68F
NORFOLK NAVAL  PTCLDY    80  73  79 SW12G21   29.69F
WEST POINT*    CLEAR     80  72  75 SW9G22    29.66F
NEWPORT NEWS   CLEAR     82  73  74 SW13      29.67F
LANGLEY AFB    CLEAR     81  73  77 SW10G18   29.66F
FORT EUSTIS    CLEAR     80  76  88 SW10G17   29.65F
WILLIAMSBURG*  CLEAR     81  73  78 SW8       29.67F
FRANKLIN*      CLEAR     79  73  83 SW8       29.70F
WAKEFIELD      CLEAR     77  72  84 SW7       29.68F
$$

VAZ020-022-025-037-045-280700-
WESTERN AND SOUTHWEST VIRGINIA

CITY           SKY/WX    TMP DP  RH WIND       PRES   REMARKS
STAUNTON*      CLOUDY    75  64  67 W6        29.70F
HOT SPRINGS VA CLOUDY    61  58  91 W14       29.88S
LYNCHBURG      PTCLDY    73  69  87 SW5       29.73F
DANVILLE       CLOUDY    78  70  76 SW7       29.74S
MARTINSVILLE   CLOUDY    79  63  57 W6        29.80S
ROANOKE        PTCLDY    75  64  68 W10       29.79R
BLACKSBURG     PTCLDY    70  66  88 W6          N/A
DUBLIN*        PTCLDY    69  66  91 SW12      29.88R
MARION*        CLOUDY   N/A N/A N/A W12G21    29.94R
HILLSVILLE*    CLOUDY    68  62  81 SW6       29.91R
RICHLANDS*     CLOUDY    69  66  90 W12G20    29.91R
WISE*          CLOUDY    66  64  94 NW8G21    29.96R
ABINGDON*      CLOUDY    66  65  97 W8        29.93R
$$

MDZ021>025-VAZ099-100-280700-
SOUTHERN MARYLAND AND THE DELMARVA PENINSULA

CITY           SKY/WX    TMP DP  RH WIND       PRES   REMARKS
PATUXENT RIVER PTCLDY    79  71  76 SW17G24   29.60F
BAY BRIDGE APT   N/A     77  72  83 S3        29.60F
LEONARDTOWN    MOCLDY    77  70  78 SW10G18   29.63F
DOVER          MOCLDY    75  73  94 S8        29.59F
GEORGETOWN     MOCLDY    75  71  87 S14       29.63F
EASTON         MOCLDY    79  75  89 S6        29.64F
CAMBRIDGE      MOCLDY    79  72  78 S3        29.59F
SALISBURY      NOT AVBL
OCEAN CITY     CLEAR     76  73  91 VRB6      29.63F
WALLOPS ISLAND CLEAR     77  73  87 SW12      29.64F
ACCOMACK*        N/A     79  68  69 SW13      29.65F
$$

NCZ012>017-030>032-280700-
EASTERN NORTH CAROLINA

CITY           SKY/WX    TMP DP  RH WIND       PRES   REMARKS
ELIZABETH CITY PTCLDY    80  74  81 S14G23    29.72F
AHOSKIE*       MOCLDY    76  72  85 S3        29.72F
EDENTON*       PTCLDY    79  75  86 S9        29.74F
CURRITUCK*     PTCLDY    80  72  78 S6        29.72F
KILL DEVIL HLS PTCLDY    80  76  86 SW8G17    29.74F
MANTEO         NOT AVBL
CAPE HATTERAS  CLOUDY    81  79  94 SW13G23   29.81F
GOLDSBORO      CLOUDY    83  77  81 SW9       29.74F
WASHINGTON     MOCLDY    79  74  84 S6        29.76F
GREENVILLE     CLOUDY    81  73  78 SW8       29.77F
NEW BERN       CLOUDY    83  74  74 SW9       29.79F
WILMINGTON     MOCLDY    84  78  82 SW13      29.81F HX  95
$$

VAZ048-280700-
ELSEWHERE

CITY           SKY/WX    TMP DP  RH WIND       PRES   REMARKS
HARRISBURG PA  MOCLDY    67  65  93 CALM      29.58F
BALTIMORE      CLOUDY    71  68  90 CALM      29.60F
ANNAPOLIS      CLOUDY    78  71  79 SW5       29.59F
ANDREWS AFB    CLOUDY    78  73  83 SW9       29.61F
WILMINGTON DE  LGT RAIN  69  66  90 SW5       29.64S
PHILADELPHIA   TSTM      71  68  90 S8        29.62F
WILDWOOD NJ*   CLOUDY    75  68  78 S13       29.65F
ATLANTIC CITY  MOCLDY    75  71  87 S7        29.62F
HENDERSON NC   CLOUDY    75  70  84 SW8       29.73F
GREENSBORO     LGT RAIN  77  69  76 W16       29.81R
ROCKY MOUNT    CLOUDY    79  73  82 S8        29.74F
FAYETTEVILLE   CLOUDY    85  72  65 SW18G28   29.76F
CHARLOTTE      CLOUDY    73  69  87 NW10      29.89R
$$

VAZ100-280700-
MARINE

STATION/POSITION TIME  TEMP    WIND        PRES    WAVE   SWELL
                       AIR SEA DIR/SP/G            HT/PER HT/PER
                 (UTC) (F)     (DEG/KT/KT) (MB)    (FT/S) (FT/S)
44066 TX TWR #4  0600   75 74  210/ 12/ 16 1004.6F   4/ 6   2/10
CAPE MAY NJ      0600   74 78  160/ 10/ 13 1003.0F
LEWES DE         0600   77 71  200/  6/ 11 1002.9F
15NM E FENWICK I 0600   76 74              1003.9F   3/ 4
OCEAN-CITY-INLET 0600   71 70  220/  9/ 10 1003.5R
WACHAPREAGUE VA  0600   78 80  220/  6/ 10 1004.2F
THOMAS POINT MD  0600   78 79  230/  7/  8 1002.7F
GOOSES REEF MD   0600   80     240/ 17/ 21 1002.4R
COVE POINT MD    0600   80     240/ 18/ 23 1001.9F
SOLOMONS ISLAND  0600      80                N/A
BISHOPS HEAD MD  0600   80 78  220/ 20/ 25 1001.8F
PINEY POINT MD   0600          240/ 17/ 19   N/A
POTOMAC MD       0600   79     230/ 17/ 21 1002.4F
CAMBRIDGE MD     0600   78 80  210/  4/  6 1001.9F
LEWISETTA VA     0600   79 80  230/ 13/ 16 1002.7F
RAPPAHANNOCK LGT 0600          200/ 20/ 22 1004.3F
STINGRAY PT      0600   80     220/ 16/ 17 1004.8S
YORK RVR RNG VA  0600   81     240/ 20/ 24 1003.5F
YORKTOWN VA      0600   80 80  220/ 12/ 14 1004.1F
JAMESTOWN VA     0600   78     230/ 14/ 17   N/A
DOMINION TERM VA 0600   80     220/ 18/ 22 1005.0F
KIPTOPEKE VA     0600      81  210/ 13/ 15   N/A
CHES BAY BRIDGE  0600   81 76  200/ 20/ 24 1004.2F
CAPE HENRY VA    0600   78     200/ 12/ 18 1004.2F
WILLOUBY STN VA  0600          230/ 21/ 23 1003.9F
S CRANEY ISL VA  0600          210/  8/ 13 1005.1F
CAPE HENRY BUOY  0600      77                N/A     3/ 4
1ST LANDING BUOY 0600   80     210/ 17/ 23 1004.9F
CAPE CHARLES BUO 0600      76                N/A     3/11
OFFSHORE WE BUOY 0600      78                N/A     3/ 4
64NM E OF VA BCH 0600   79 78  190/ 14/ 17 1006.4F   3/ 5   2/10
DUCK PIER NC     0600   81 69  200/ 13/ 18 1006.2F
44056 DUCK FRF   0600                        N/A     1/10
OREGON INLET NC  0600   82 82  210/ 17/ 20 1008.0F
HATTERAS NC      0600   81 82  220/ 11/ 19 1009.7S
DIAMOND SHLS NC  0600          VRB 19/ 23  1009.2F   5/ 5   2/ 8
CAPE LOOKOUT NC  0500   82     220/ 14/ 19 1009.8F
$$



USA.gov is the U.S. government's official web portal to all federal, state and local government web resources and services.